TimeCDT,TemperatureF,Dew PointF,Humidity,Sea Level PressureIn,VisibilityMPH,Wind Direction,Wind SpeedMPH,Gust SpeedMPH,PrecipitationIn,Events,Conditions,WindDirDegrees,DateUTC
12:54 AM,33.1,21.0,61,30.04,10.0,Calm,Calm,-,N/A,,Clear,0,2013-03-12 05:54:00
1:54 AM,30.9,23.0,72,30.04,10.0,Calm,Calm,-,N/A,,Clear,0,2013-03-12 06:54:00
2:54 AM,32.0,24.1,73,30.06,10.0,Calm,Calm,-,N/A,,Clear,0,2013-03-12 07:54:00
3:54 AM,30.9,24.1,76,30.07,10.0,Calm,Calm,-,N/A,,Clear,0,2013-03-12 08:54:00
4:54 AM,30.9,21.9,69,30.09,10.0,West,3.5,-,N/A,,Clear,270,2013-03-12 09:54:00
5:54 AM,33.1,21.0,61,30.12,10.0,WNW,5.8,-,N/A,,Clear,290,2013-03-12 10:54:00
6:54 AM,32.0,21.0,64,30.14,10.0,Calm,Calm,-,N/A,,Clear,0,2013-03-12 11:54:00
7:54 AM,32.0,21.9,66,30.16,10.0,Calm,Calm,-,N/A,,Mostly Cloudy,0,2013-03-12 12:54:00
8:54 AM,34.0,24.1,67,30.17,10.0,West,3.5,-,N/A,,Partly Cloudy,260,2013-03-12 13:54:00
9:54 AM,37.0,25.0,62,30.19,10.0,West,4.6,-,N/A,,Mostly Cloudy,260,2013-03-12 14:54:00
10:54 AM,43.0,24.1,47,30.20,10.0,WNW,13.8,20.7,N/A,,Mostly Cloudy,290,2013-03-12 15:54:00
11:54 AM,44.1,23.0,43,30.21,10.0,WNW,12.7,25.3,N/A,,Overcast,290,2013-03-12 16:54:00
12:54 PM,46.0,21.0,37,30.22,10.0,West,16.1,25.3,N/A,,Partly Cloudy,280,2013-03-12 17:54:00
1:54 PM,46.0,21.0,37,30.20,10.0,NW,12.7,24.2,N/A,,Partly Cloudy,310,2013-03-12 18:54:00
2:54 PM,45.0,21.9,40,30.19,10.0,NNW,17.3,25.3,N/A,,Mostly Cloudy,330,2013-03-12 19:54:00
3:54 PM,43.0,23.0,45,30.20,10.0,NNW,18.4,27.6,N/A,,Overcast,330,2013-03-12 20:54:00
4:54 PM,43.0,21.0,42,30.23,10.0,WNW,12.7,27.6,N/A,,Overcast,300,2013-03-12 21:54:00
5:54 PM,43.0,19.0,38,30.23,10.0,WNW,16.1,27.6,N/A,,Mostly Cloudy,300,2013-03-12 22:54:00
6:54 PM,41.0,21.0,45,30.25,10.0,NW,17.3,25.3,N/A,,Clear,310,2013-03-12 23:54:00
7:54 PM,37.0,21.0,52,30.29,10.0,NNW,10.4,-,N/A,,Clear,330,2013-03-13 00:54:00
8:54 PM,35.1,21.0,57,30.31,10.0,WNW,3.5,-,N/A,,Clear,300,2013-03-13 01:54:00
9:54 PM,34.0,21.0,59,30.32,10.0,NW,6.9,-,N/A,,Clear,320,2013-03-13 02:54:00
10:54 PM,34.0,19.9,56,30.34,10.0,NW,8.1,-,N/A,,Clear,320,2013-03-13 03:54:00
11:54 PM,32.0,19.9,61,30.36,10.0,NW,6.9,-,N/A,,Clear,320,2013-03-13 04:54:00